Location: *
(48.7358°N, 0.3111°E)
Time: 04:48:22
(UTC+00:00)

Meteor 1-31 Rocket - Pass Details

Date: 22 October 2019
Orbit: 520 x 548 km, 97.6° (Epoch: 12 November)

Event Time Altitude Azimuth Distance (km) Brightness Sun altitude
Rises 04:42:38 0° 13° (NNE) 2,666 6.5 -18.2°
Reaches altitude 10° 04:44:45 10° 14° (NNE) 1,770 5.6 -17.8°
Maximum altitude 04:48:34 88° 97° (E) 528 2.6 -17.2°
Drops below altitude 10° 04:52:21 10° 194° (SSW) 1,752 5.2 -16.6°
Sets 04:54:26 0° 194° (SSW) 2,635 6.1 -16.2°
